Tracking 34223 objects as of 31-May-2026
HD Live streaming from Space Station
objects crossing your sky now

COSMOS 2534 (GLONASS)

Track COSMOS 2534 (GLONASS) now!
COSMOS 2534 (GLONASS) is classified as:


NORAD ID: 44299
Int'l Code: 2019-030A
Perigee: 19,103.5 km
Apogee: 19,170.5 km
Inclination: 64.4 °
Period: 675.7 minutes
Semi major axis: 25507 km
RCS: Unknown
Launch date: May 27, 2019
Source: Commonwealth of Independent States (former USSR) (CIS)
Launch site: PLESETSK MISSILE AND SPACE COMPLEX (PKMTR)
SV: 758
Your satellite tracking list
Your tracking list is empty




NASA's NSSDC Master Catalog

Two Line Element Set (TLE):
1 44299U 19030A   26151.17755657  .00000080  00000-0  00000+0 0  9996
2 44299  64.3673 193.1894 0013137 275.1900 134.6852  2.13102546 54566
Source of the keplerian elements: AFSPC